SCOUT A DEB, 2778

Orbit data source: Space-Track

SCOUT A DEB, 2778 is space debris in LEO originally from a launch on Fri, 14 Apr 1967 UTC launched from the Air Force Western Test Range (AFWTR). Debris objects in space refer to the collection of defunct objects orbiting the Earth. Examples of debris include non-operational satellites, rocket bodies, and fragments generated from explosions, collisions, or faulty payload assembly.

Loading next visibility...
Identifier
2778, 1967-034D
Orbit
LEO
Country
Flag of USUS
Related business
Manufacturer
Unknown
Mission
Spacecraft
Bus & Motor
Unknown
Mass
Unknown
Launch date (UTC)
1967-04-14 (59 years ago)
Launch vehicle
Unknown
Launch site
Air Force Western Test Range (AFWTR)
Object type
Payload
Rocket body
Debris
Shape & HBR
Unknown shape, 0.1 m
Radar Cross Section
Small (<0.1 m²)

Expand to show TLE details & history
Last TLE update: 6 hours ago

TLE from 6 hours ago
0 SCOUT A DEB
1 02778U 67034D   25291.29077209  .00000288  00000-0  53152-3 0  9996
2 02778  89.8465  41.1590 0120930 316.8116 127.4433 13.35175962840870
Epoch: 2025-10-18T06:58Z
TLE epoch observation values (Epoch: 2025-10-18T06:58:42.708Z)
Latitude
85.36034°
Longitude
-88.66063°
Altitude
1,196.989 km
Speed
7.235 km/s
True Right ascension
02h 52m 09s
True Declination
85° 20' 03"
Sunlit
Object was in daylight at epoch
Visualization orbit readout
Latitude
Unknown
Longitude
Unknown
Altitude
Unknown
Speed
Unknown
Apparent Right ascension
Unknown
Apparent Declination
Unknown
Sunlit
N/A
Visualization observer readout
Local Sidereal Time
08:12:41
Azimuth
Unknown
Elevation
Unknown
Doppler factor
Unknown
Orbital elements
Apogee altitude
1,215.102 km
Perigee altitude
1,033.646 km
Semi-major axis
7,502.511 km
Eccentricity
0.01209
Inclination
89.8465°
RAAN
41.159°
Arg. of periapsis
316.8116°
True anomaly
128.53344°
Mean anomaly
127.4433°
Eccentric anomaly
127.98937°
Mean motion
3.3399 °/min
Orbital period
107.79 mins
BSTAR
0.00053152
Loading maneuver chart data...
Computing Atmospheric mass density...
Loading historical data...
Loading historical data...
Loading historical data...
Loading historical data...
Loading historical data...
Loading historical data...
Loading historical data...

Documentation

Showing up to 5 results
|